Terminal Aerodrome Forecast
Issued by NWS

Home | Current Version | Previous Version | Text Only | Print | Product List | Glossary On
Versions: 1 2 3 4 5 6 7 8 9 10 11 12 13 14 15 16 17 18 19 20 21
000
FTUS42 KTAE 020500
TAFDHN
TAF
KDHN 020520Z 0206/0306 VRB03KT P6SM FEW040
     FM021800 22005KT P6SM SCT050
     FM030000 23004KT P6SM FEW250=

USA.gov is the U.S. government's official web portal to all federal, state and local government web resources and services.